date,time,SUV Intensity [MED/Hr],UV Index,Daily total [MED],Since Last [MED]
25/07/2023,23:59:22,0.001,0.0,9.087,9.087
26/07/2023,00:00:21,-0.001,0.0,0.0,-9.087
26/07/2023,00:01:44,0.001,0.0,0.0,0.0
26/07/2023,00:03:22,0.000,0.0,0.0,0.0
26/07/2023,00:04:22,0.000,0.0,0.0,0.0
26/07/2023,00:05:22,-0.001,0.0,0.0,0.0
26/07/2023,00:06:22,0.000,0.0,0.0,0.0
26/07/2023,00:07:22,-0.001,0.0,0.0,0.0
26/07/2023,00:08:21,0.000,0.0,0.0,0.0
26/07/2023,00:09:22,0.000,0.0,0.0,0.0
26/07/2023,00:10:21,0.001,0.0,0.0,0.0
26/07/2023,00:11:22,-0.000,0.0,0.0,0.0
26/07/2023,00:12:22,0.000,0.0,0.0,0.0
26/07/2023,00:13:22,0.001,0.0,0.0,0.0
26/07/2023,00:14:22,0.001,0.0,0.0,0.0
26/07/2023,00:15:22,0.000,0.0,0.0,0.0
26/07/2023,00:16:21,0.000,0.0,0.0,0.0
26/07/2023,00:17:22,0.000,0.0,0.0,0.0
26/07/2023,00:18:22,0.000,0.0,0.0,0.0
26/07/2023,00:19:22,0.000,0.0,0.0,0.0
26/07/2023,00:20:22,-0.000,0.0,0.0,0.0
26/07/2023,00:21:22,0.000,0.0,0.0,0.0
26/07/2023,00:22:22,0.001,0.0,0.0,0.0
26/07/2023,00:23:22,0.000,0.0,0.0,0.0
26/07/2023,00:24:21,0.000,0.0,0.0,0.0
26/07/2023,00:25:22,0.000,0.0,0.0,0.0
26/07/2023,00:26:21,0.000,0.0,0.0,0.0
26/07/2023,00:27:22,-0.000,0.0,0.0,0.0
26/07/2023,00:28:22,0.000,0.0,0.0,0.0
26/07/2023,00:29:22,0.000,0.0,0.0,0.0
26/07/2023,00:30:21,0.000,0.0,0.0,0.0
26/07/2023,00:31:21,0.001,0.0,0.0,0.0
26/07/2023,00:32:22,0.001,0.0,0.0,0.0
26/07/2023,00:33:22,0.000,0.0,0.0,0.0
26/07/2023,00:34:22,0.001,0.0,0.0,0.0
26/07/2023,00:35:22,0.000,0.0,0.0,0.0
26/07/2023,00:36:22,-0.001,0.0,0.0,0.0
26/07/2023,00:37:22,0.000,0.0,0.0,0.0
26/07/2023,00:38:22,0.000,0.0,0.0,0.0
26/07/2023,00:39:22,0.000,0.0,0.0,0.0
26/07/2023,00:40:22,0.000,0.0,0.0,0.0
26/07/2023,00:41:22,0.000,0.0,0.0,0.0
26/07/2023,00:42:22,0.000,0.0,0.0,0.0
26/07/2023,00:43:22,0.000,0.0,0.0,0.0
26/07/2023,00:44:22,-0.001,0.0,0.0,0.0
26/07/2023,00:45:22,0.000,0.0,0.0,0.0
26/07/2023,00:46:21,0.000,0.0,0.0,0.0
26/07/2023,00:47:22,0.001,0.0,0.0,0.0
26/07/2023,00:48:21,0.000,0.0,0.0,0.0
26/07/2023,00:49:22,0.000,0.0,0.0,0.0
26/07/2023,00:50:22,0.000,0.0,0.0,0.0
26/07/2023,00:51:22,0.001,0.0,0.0,0.0
26/07/2023,00:52:22,-0.001,0.0,0.0,0.0
26/07/2023,00:53:21,-0.001,0.0,0.0,0.0
26/07/2023,00:54:22,-0.001,0.0,0.0,0.0
26/07/2023,00:55:21,0.001,0.0,0.0,0.0
26/07/2023,00:56:22,0.000,0.0,0.0,0.0
26/07/2023,00:57:21,-0.000,0.0,0.0,0.0
26/07/2023,00:58:22,0.001,0.0,0.0,0.0
26/07/2023,00:59:21,0.000,0.0,0.0,0.0
26/07/2023,01:00:22,0.001,0.0,0.0,0.0
26/07/2023,01:01:22,0.001,0.0,0.0,0.0
26/07/2023,01:02:22,0.000,0.0,0.0,0.0
26/07/2023,01:03:22,0.001,0.0,0.0,0.0
26/07/2023,01:04:21,0.001,0.0,0.0,0.0
26/07/2023,01:05:22,0.001,0.0,0.0,0.0
26/07/2023,01:06:22,0.001,0.0,0.0,0.0
26/07/2023,01:07:22,0.000,0.0,0.0,0.0
26/07/2023,01:08:22,0.001,0.0,0.0,0.0
26/07/2023,01:09:21,0.000,0.0,0.0,0.0
26/07/2023,01:10:22,0.001,0.0,0.0,0.0
26/07/2023,01:11:22,0.000,0.0,0.0,0.0
26/07/2023,01:12:22,-0.000,0.0,0.0,0.0
26/07/2023,01:13:22,0.001,0.0,0.0,0.0
26/07/2023,01:14:22,0.001,0.0,0.0,0.0
26/07/2023,01:15:22,0.001,0.0,0.0,0.0
26/07/2023,01:16:22,0.001,0.0,0.0,0.0
26/07/2023,01:17:22,0.001,0.0,0.0,0.0
26/07/2023,01:18:22,0.001,0.0,0.0,0.0
26/07/2023,01:19:22,0.001,0.0,0.0,0.0
26/07/2023,01:20:22,0.001,0.0,0.0,0.0
26/07/2023,01:21:22,-0.000,0.0,0.0,0.0
26/07/2023,01:22:22,0.001,0.0,0.0,0.0
26/07/2023,01:23:21,0.001,0.0,0.0,0.0
26/07/2023,01:24:22,0.001,0.0,0.0,0.0
26/07/2023,01:25:22,0.000,0.0,0.0,0.0
26/07/2023,01:26:21,0.001,0.0,0.0,0.0
26/07/2023,01:27:22,0.001,0.0,0.0,0.0
26/07/2023,01:28:21,0.001,0.0,0.0,0.0
26/07/2023,01:29:22,0.000,0.0,0.0,0.0
26/07/2023,01:30:21,-0.000,0.0,0.0,0.0
26/07/2023,01:31:22,0.000,0.0,0.0,0.0
26/07/2023,01:32:21,0.001,0.0,0.0,0.0
26/07/2023,01:33:22,0.001,0.0,0.0,0.0
26/07/2023,01:34:21,0.001,0.0,0.0,0.0
26/07/2023,01:35:22,0.001,0.0,0.0,0.0
26/07/2023,01:36:22,0.001,0.0,0.0,0.0
26/07/2023,01:37:22,-0.000,0.0,0.0,0.0
26/07/2023,01:38:22,0.001,0.0,0.0,0.0
26/07/2023,01:39:22,0.001,0.0,0.0,0.0
26/07/2023,01:40:22,0.001,0.0,0.0,0.0
26/07/2023,01:41:22,0.000,0.0,0.0,0.0
26/07/2023,01:42:22,0.001,0.0,0.0,0.0
26/07/2023,01:43:22,0.001,0.0,0.0,0.0
26/07/2023,01:44:21,0.001,0.0,0.0,0.0
26/07/2023,01:45:22,0.001,0.0,0.0,0.0
26/07/2023,01:46:22,0.001,0.0,0.0,0.0
26/07/2023,01:47:22,0.001,0.0,0.0,0.0
26/07/2023,01:48:22,-0.000,0.0,0.0,0.0
26/07/2023,01:49:22,0.001,0.0,0.0,0.0
26/07/2023,01:50:22,0.001,0.0,0.0,0.0
26/07/2023,01:51:22,-0.000,0.0,0.0,0.0
26/07/2023,01:52:22,0.001,0.0,0.0,0.0
26/07/2023,01:53:22,0.001,0.0,0.0,0.0
26/07/2023,01:54:22,0.001,0.0,0.0,0.0
26/07/2023,01:55:22,0.001,0.0,0.0,0.0
26/07/2023,01:56:21,0.001,0.0,0.0,0.0
26/07/2023,01:57:22,0.001,0.0,0.0,0.0
26/07/2023,01:58:22,0.000,0.0,0.0,0.0
26/07/2023,01:59:22,0.001,0.0,0.0,0.0
26/07/2023,02:00:22,-0.000,0.0,0.0,0.0
26/07/2023,02:01:22,0.001,0.0,0.0,0.0
26/07/2023,02:02:21,0.002,0.0,0.0,0.0
26/07/2023,02:03:22,0.001,0.0,0.0,0.0
26/07/2023,02:04:22,0.001,0.0,0.0,0.0
26/07/2023,02:05:22,0.001,0.0,0.0,0.0
26/07/2023,02:06:22,0.001,0.0,0.0,0.0
26/07/2023,02:07:23,0.001,0.0,0.0,0.0
26/07/2023,02:08:23,0.002,0.0,0.0,0.0
26/07/2023,02:09:22,0.001,0.0,0.0,0.0
26/07/2023,02:10:22,0.001,0.0,0.0,0.0
26/07/2023,02:11:22,0.001,0.0,0.0,0.0
26/07/2023,02:12:22,0.001,0.0,0.0,0.0
26/07/2023,02:13:21,0.001,0.0,0.0,0.0
26/07/2023,02:14:22,-0.000,0.0,0.0,0.0
26/07/2023,02:15:21,0.001,0.0,0.0,0.0
26/07/2023,02:16:22,0.002,0.0,0.0,0.0
26/07/2023,02:17:22,0.001,0.0,0.0,0.0
26/07/2023,02:18:22,0.001,0.0,0.0,0.0
26/07/2023,02:19:22,0.000,0.0,0.0,0.0
26/07/2023,02:20:22,0.000,0.0,0.0,0.0
26/07/2023,02:21:22,0.001,0.0,0.0,0.0
26/07/2023,02:22:22,0.001,0.0,0.0,0.0
26/07/2023,02:23:22,0.001,0.0,0.0,0.0
26/07/2023,02:24:22,0.001,0.0,0.0,0.0
26/07/2023,02:25:22,0.001,0.0,0.0,0.0
26/07/2023,02:26:22,0.000,0.0,0.0,0.0
26/07/2023,02:27:22,0.001,0.0,0.0,0.0
26/07/2023,02:28:23,0.001,0.0,0.0,0.0
26/07/2023,02:29:23,0.001,0.0,0.0,0.0
26/07/2023,02:30:23,0.000,0.0,0.0,0.0
26/07/2023,02:31:22,0.000,0.0,0.0,0.0
26/07/2023,02:32:22,0.001,0.0,0.0,0.0
26/07/2023,02:33:22,0.001,0.0,0.0,0.0
26/07/2023,02:34:22,0.001,0.0,0.0,0.0
26/07/2023,02:35:22,0.001,0.0,0.0,0.0
26/07/2023,02:36:22,0.001,0.0,0.0,0.0
26/07/2023,02:37:22,0.001,0.0,0.0,0.0
26/07/2023,02:38:22,0.001,0.0,0.0,0.0
26/07/2023,02:39:22,0.001,0.0,0.0,0.0
26/07/2023,02:40:22,0.001,0.0,0.0,0.0
26/07/2023,02:41:22,0.001,0.0,0.0,0.0
26/07/2023,02:42:22,0.001,0.0,0.0,0.0
26/07/2023,02:43:22,0.002,0.0,0.0,0.0
26/07/2023,02:44:23,0.000,0.0,0.0,0.0
26/07/2023,02:45:22,0.001,0.0,0.0,0.0
26/07/2023,02:46:22,0.001,0.0,0.0,0.0
26/07/2023,02:47:22,0.001,0.0,0.0,0.0
26/07/2023,02:48:22,0.001,0.0,0.0,0.0
26/07/2023,02:49:22,0.001,0.0,0.0,0.0
26/07/2023,02:50:22,0.001,0.0,0.0,0.0
26/07/2023,02:51:22,0.001,0.0,0.0,0.0
26/07/2023,02:52:22,0.001,0.0,0.0,0.0
26/07/2023,02:53:22,0.001,0.0,0.0,0.0
26/07/2023,02:54:22,0.002,0.0,0.0,0.0
26/07/2023,02:55:22,0.001,0.0,0.0,0.0
26/07/2023,02:56:22,0.001,0.0,0.0,0.0
26/07/2023,02:57:22,0.001,0.0,0.0,0.0
26/07/2023,02:58:23,0.001,0.0,0.0,0.0
26/07/2023,02:59:22,0.001,0.0,0.0,0.0
26/07/2023,03:00:22,0.001,0.0,0.0,0.0
26/07/2023,03:01:22,0.001,0.0,0.0,0.0
26/07/2023,03:02:22,0.001,0.0,0.0,0.0
26/07/2023,03:03:22,0.000,0.0,0.0,0.0
26/07/2023,03:04:22,0.001,0.0,0.0,0.0
26/07/2023,03:05:22,0.001,0.0,0.0,0.0
26/07/2023,03:06:22,0.001,0.0,0.0,0.0
26/07/2023,03:07:22,0.002,0.0,0.0,0.0
26/07/2023,03:08:22,0.000,0.0,0.0,0.0
26/07/2023,03:09:22,0.002,0.0,0.0,0.0
26/07/2023,03:10:22,0.000,0.0,0.0,0.0
26/07/2023,03:11:22,0.002,0.0,0.0,0.0
26/07/2023,03:12:22,0.001,0.0,0.0,0.0
26/07/2023,03:13:22,0.001,0.0,0.0,0.0
26/07/2023,03:14:22,0.001,0.0,0.0,0.0
26/07/2023,03:15:22,0.001,0.0,0.0,0.0
26/07/2023,03:16:22,0.001,0.0,0.0,0.0
26/07/2023,03:17:22,0.001,0.0,0.0,0.0
26/07/2023,03:18:22,0.001,0.0,0.0,0.0
26/07/2023,03:19:22,0.000,0.0,0.0,0.0
26/07/2023,03:20:22,0.001,0.0,0.0,0.0
26/07/2023,03:21:22,0.002,0.0,0.0,0.0
26/07/2023,03:22:23,0.001,0.0,0.0,0.0
26/07/2023,03:23:22,0.001,0.0,0.0,0.0
26/07/2023,03:24:21,0.001,0.0,0.0,0.0
26/07/2023,03:25:22,0.001,0.0,0.0,0.0
26/07/2023,03:26:22,0.002,0.0,0.0,0.0
26/07/2023,03:27:23,0.002,0.0,0.0,0.0
26/07/2023,03:28:22,0.001,0.0,0.0,0.0
26/07/2023,03:29:22,0.001,0.0,0.0,0.0
26/07/2023,03:30:22,0.002,0.0,0.0,0.0
26/07/2023,03:31:23,0.001,0.0,0.0,0.0
26/07/2023,03:32:22,0.002,0.0,0.0,0.0
26/07/2023,03:33:22,0.001,0.0,0.0,0.0
26/07/2023,03:34:22,0.001,0.0,0.0,0.0
26/07/2023,03:35:22,0.001,0.0,0.0,0.0
26/07/2023,03:36:22,0.001,0.0,0.0,0.0
26/07/2023,03:37:22,0.001,0.0,0.0,0.0
26/07/2023,03:38:22,0.001,0.0,0.0,0.0
26/07/2023,03:39:22,0.001,0.0,0.0,0.0
26/07/2023,03:40:23,0.001,0.0,0.0,0.0
26/07/2023,03:41:22,0.001,0.0,0.0,0.0
26/07/2023,03:42:22,0.001,0.0,0.0,0.0
26/07/2023,03:43:22,0.001,0.0,0.0,0.0
26/07/2023,03:44:22,0.002,0.0,0.0,0.0
26/07/2023,03:45:22,0.001,0.0,0.0,0.0
26/07/2023,03:46:22,0.000,0.0,0.0,0.0
26/07/2023,03:47:22,0.003,0.0,0.0,0.0
26/07/2023,03:48:22,0.002,0.0,0.0,0.0
26/07/2023,03:49:22,0.001,0.0,0.0,0.0
26/07/2023,03:50:22,0.002,0.0,0.0,0.0
26/07/2023,03:51:22,0.001,0.0,0.0,0.0
26/07/2023,03:52:22,0.003,0.0,0.0,0.0
26/07/2023,03:53:22,0.002,0.0,0.0,0.0
26/07/2023,03:54:22,0.002,0.0,0.0,0.0
26/07/2023,03:55:22,0.002,0.0,0.0,0.0
26/07/2023,03:56:22,0.002,0.0,0.0,0.0
26/07/2023,03:57:22,0.002,0.0,0.0,0.0
26/07/2023,03:58:22,0.002,0.0,0.0,0.0
26/07/2023,03:59:22,0.002,0.0,0.0,0.0
26/07/2023,04:00:22,0.002,0.0,0.0,0.0
26/07/2023,04:01:22,0.003,0.0,0.0,0.0
26/07/2023,04:02:22,0.003,0.0,0.0,0.0
26/07/2023,04:03:23,0.002,0.0,0.0,0.0
26/07/2023,04:04:22,0.002,0.0,0.0,0.0
26/07/2023,04:05:23,0.003,0.0,0.0,0.0
26/07/2023,04:06:23,0.003,0.0,0.0,0.0
26/07/2023,04:07:22,0.003,0.0,0.0,0.0
26/07/2023,04:08:22,0.002,0.0,0.0,0.0
26/07/2023,04:09:22,0.002,0.0,0.0,0.0
26/07/2023,04:10:22,0.003,0.0,0.0,0.0
26/07/2023,04:11:22,0.003,0.0,0.0,0.0
26/07/2023,04:12:22,0.003,0.0,0.0,0.0
26/07/2023,04:13:22,0.003,0.0,0.0,0.0
26/07/2023,04:14:22,0.003,0.0,0.0,0.0
26/07/2023,04:15:22,0.003,0.0,0.0,0.0
26/07/2023,04:16:22,0.003,0.0,0.0,0.0
26/07/2023,04:17:22,0.004,0.0,0.0,0.0
26/07/2023,04:18:23,0.003,0.0,0.0,0.0
26/07/2023,04:19:22,0.003,0.0,0.0,0.0
26/07/2023,04:20:23,0.004,0.0,0.0,0.0
26/07/2023,04:21:23,0.004,0.0,0.0,0.0
26/07/2023,04:22:22,0.005,0.0,0.0,0.0
26/07/2023,04:23:26,0.005,0.0,0.0,0.0
26/07/2023,04:24:24,0.004,0.0,0.0,0.0
26/07/2023,04:25:23,0.005,0.0,0.0,0.0
26/07/2023,04:26:22,0.004,0.0,0.0,0.0
26/07/2023,04:27:23,0.004,0.0,0.0,0.0
26/07/2023,04:28:22,0.005,0.0,0.0,0.0
26/07/2023,04:29:22,0.005,0.0,0.0,0.0
26/07/2023,04:30:22,0.005,0.0,0.0,0.0
26/07/2023,04:31:22,0.006,0.0,0.0,0.0
26/07/2023,04:32:22,0.007,0.0,0.0,0.0
26/07/2023,04:33:22,0.006,0.0,0.0,0.0
26/07/2023,04:34:22,0.007,0.0,0.0,0.0
26/07/2023,04:35:22,0.007,0.0,0.0,0.0
26/07/2023,04:36:22,0.007,0.0,0.001,0.001
26/07/2023,04:37:22,0.008,0.0,0.001,0.0
26/07/2023,04:38:22,0.008,0.0,0.001,0.0
26/07/2023,04:39:22,0.008,0.0,0.001,0.0
26/07/2023,04:40:22,0.008,0.0,0.001,0.0
26/07/2023,04:41:22,0.009,0.0,0.001,0.0
26/07/2023,04:42:22,0.009,0.0,0.001,0.0
26/07/2023,04:43:22,0.010,0.0,0.002,0.001
26/07/2023,04:44:22,0.010,0.0,0.002,0.0
26/07/2023,04:45:22,0.010,0.0,0.002,0.0
26/07/2023,04:46:22,0.011,0.0,0.002,0.0
26/07/2023,04:47:23,0.011,0.0,0.002,0.0
26/07/2023,04:48:23,0.011,0.0,0.002,0.0
26/07/2023,04:49:22,0.012,0.0,0.003,0.001
26/07/2023,04:50:22,0.011,0.0,0.003,0.0
26/07/2023,04:51:22,0.013,0.0,0.003,0.0
26/07/2023,04:52:22,0.012,0.0,0.003,0.0
26/07/2023,04:53:22,0.013,0.0,0.003,0.0
26/07/2023,04:54:22,0.014,0.0,0.004,0.001
26/07/2023,04:55:22,0.014,0.0,0.004,0.0
26/07/2023,04:56:22,0.015,0.0,0.004,0.0
26/07/2023,04:57:23,0.015,0.0,0.004,0.0
26/07/2023,04:58:22,0.016,0.0,0.005,0.001
26/07/2023,04:59:22,0.016,0.0,0.005,0.0
26/07/2023,05:00:22,0.016,0.0,0.005,0.0
26/07/2023,05:01:22,0.018,0.0,0.005,0.0
26/07/2023,05:02:22,0.018,0.0,0.006,0.001
26/07/2023,05:03:23,0.018,0.0,0.006,0.0
26/07/2023,05:04:22,0.019,0.0,0.006,0.0
26/07/2023,05:05:22,0.020,0.0,0.007,0.001
26/07/2023,05:06:22,0.020,0.0,0.007,0.0
26/07/2023,05:07:22,0.021,0.0,0.007,0.0
26/07/2023,05:08:22,0.022,0.0,0.008,0.001
26/07/2023,05:09:22,0.022,0.0,0.008,0.0
26/07/2023,05:10:22,0.022,0.0,0.009,0.001
26/07/2023,05:11:23,0.024,0.0,0.009,0.0
26/07/2023,05:12:22,0.024,0.0,0.009,0.0
26/07/2023,05:13:22,0.024,0.0,0.01,0.001
26/07/2023,05:14:23,0.026,0.0,0.01,0.0
26/07/2023,05:15:23,0.027,0.0,0.011,0.001
26/07/2023,05:16:22,0.027,0.0,0.011,0.0
26/07/2023,05:17:22,0.028,0.0,0.011,0.0
26/07/2023,05:18:22,0.029,0.0,0.012,0.001
26/07/2023,05:19:22,0.030,0.0,0.012,0.0
26/07/2023,05:20:22,0.030,0.0,0.013,0.001
26/07/2023,05:21:23,0.031,0.0,0.013,0.0
26/07/2023,05:22:22,0.032,0.0,0.014,0.001
26/07/2023,05:23:23,0.033,0.0,0.015,0.001
26/07/2023,05:24:22,0.034,0.0,0.015,0.0
26/07/2023,05:25:22,0.035,0.0,0.016,0.001
26/07/2023,05:26:22,0.036,0.0,0.016,0.0
26/07/2023,05:27:22,0.037,0.0,0.017,0.001
26/07/2023,05:28:22,0.037,0.0,0.017,0.0
26/07/2023,05:29:22,0.039,0.0,0.018,0.001
26/07/2023,05:30:23,0.040,0.0,0.019,0.001
26/07/2023,05:31:22,0.042,0.0,0.019,0.0
26/07/2023,05:32:22,0.042,0.0,0.02,0.001
26/07/2023,05:33:22,0.042,0.0,0.021,0.001
26/07/2023,05:34:22,0.044,0.0,0.022,0.001
26/07/2023,05:35:22,0.046,0.0,0.022,0.0
26/07/2023,05:36:22,0.045,0.0,0.023,0.001
26/07/2023,05:37:22,0.048,0.0,0.024,0.001
26/07/2023,05:38:22,0.049,0.0,0.025,0.001
26/07/2023,05:39:23,0.050,0.0,0.026,0.001
26/07/2023,05:40:22,0.051,0.0,0.026,0.0
26/07/2023,05:41:22,0.052,0.0,0.027,0.001
26/07/2023,05:42:22,0.053,0.0,0.028,0.001
26/07/2023,05:43:23,0.054,0.0,0.029,0.001
26/07/2023,05:44:23,0.056,0.0,0.03,0.001
26/07/2023,05:45:22,0.057,0.0,0.031,0.001
26/07/2023,05:46:22,0.058,0.0,0.032,0.001
26/07/2023,05:47:23,0.060,0.0,0.033,0.001
26/07/2023,05:48:22,0.061,0.0,0.034,0.001
26/07/2023,05:49:22,0.063,0.0,0.035,0.001
26/07/2023,05:50:22,0.065,0.0,0.036,0.001
26/07/2023,05:51:22,0.065,0.0,0.037,0.001
26/07/2023,05:52:22,0.067,0.0,0.038,0.001
26/07/2023,05:53:23,0.068,0.0,0.039,0.001
26/07/2023,05:54:22,0.070,0.0,0.04,0.001
26/07/2023,05:55:22,0.071,0.0,0.042,0.002
26/07/2023,05:56:23,0.073,0.0,0.043,0.001
26/07/2023,05:57:22,0.075,0.0,0.044,0.001
26/07/2023,05:58:23,0.075,0.0,0.045,0.001
26/07/2023,05:59:22,0.078,0.0,0.047,0.002
26/07/2023,06:00:22,0.080,0.0,0.048,0.001
26/07/2023,06:01:23,0.081,0.0,0.049,0.001
26/07/2023,06:02:22,0.083,0.0,0.051,0.002
26/07/2023,06:03:22,0.085,0.0,0.052,0.001
26/07/2023,06:04:23,0.089,0.0,0.053,0.001
26/07/2023,06:05:22,0.092,0.0,0.055,0.002
26/07/2023,06:06:23,0.094,0.0,0.056,0.001
26/07/2023,06:07:22,0.096,0.0,0.058,0.002
26/07/2023,06:08:22,0.099,0.0,0.06,0.002
26/07/2023,06:09:23,0.101,0.0,0.061,0.001
26/07/2023,06:10:22,0.103,0.0,0.063,0.002
26/07/2023,06:11:23,0.105,0.0,0.065,0.002
26/07/2023,06:12:22,0.108,0.0,0.067,0.002
26/07/2023,06:13:22,0.109,0.0,0.068,0.001
26/07/2023,06:14:23,0.111,0.0,0.07,0.002
26/07/2023,06:15:22,0.114,0.0,0.072,0.002
26/07/2023,06:16:22,0.115,0.0,0.074,0.002
26/07/2023,06:17:22,0.117,0.0,0.076,0.002
26/07/2023,06:18:22,0.121,0.0,0.078,0.002
26/07/2023,06:19:22,0.124,0.0,0.08,0.002
26/07/2023,06:20:23,0.126,0.0,0.082,0.002
26/07/2023,06:21:22,0.128,0.0,0.084,0.002
26/07/2023,06:22:22,0.130,0.0,0.086,0.002
26/07/2023,06:23:23,0.134,0.0,0.088,0.002
26/07/2023,06:24:22,0.136,0.0,0.091,0.003
26/07/2023,06:25:22,0.138,0.0,0.093,0.002
26/07/2023,06:26:22,0.142,0.0,0.095,0.002
26/07/2023,06:27:22,0.145,0.0,0.098,0.003
26/07/2023,06:28:23,0.148,0.0,0.1,0.002
26/07/2023,06:29:22,0.151,0.0,0.103,0.003
26/07/2023,06:30:22,0.155,0.0,0.105,0.002
26/07/2023,06:31:22,0.158,0.0,0.108,0.003
26/07/2023,06:32:22,0.162,0.0,0.111,0.003
26/07/2023,06:33:22,0.163,0.0,0.113,0.002
26/07/2023,06:34:22,0.167,0.0,0.116,0.003
26/07/2023,06:35:23,0.170,0.0,0.119,0.003
26/07/2023,06:36:22,0.173,0.0,0.122,0.003
26/07/2023,06:37:22,0.177,0.0,0.125,0.003
26/07/2023,06:38:23,0.180,0.0,0.128,0.003
26/07/2023,06:39:22,0.183,0.0,0.131,0.003
26/07/2023,06:40:22,0.186,0.0,0.134,0.003
26/07/2023,06:41:23,0.190,0.0,0.137,0.003
26/07/2023,06:42:22,0.194,0.0,0.14,0.003
26/07/2023,06:43:22,0.196,0.0,0.143,0.003
26/07/2023,06:44:23,0.200,0.0,0.147,0.004
26/07/2023,06:45:23,0.202,0.0,0.15,0.003
26/07/2023,06:46:22,0.205,0.0,0.153,0.003
26/07/2023,06:47:23,0.208,0.0,0.157,0.004
26/07/2023,06:48:23,0.211,0.0,0.16,0.003
26/07/2023,06:49:22,0.215,0.0,0.164,0.004
26/07/2023,06:50:22,0.220,1.0,0.167,0.003
26/07/2023,06:51:22,0.218,1.0,0.171,0.004
26/07/2023,06:52:22,0.225,1.0,0.175,0.004
26/07/2023,06:53:23,0.231,1.0,0.178,0.003
26/07/2023,06:54:22,0.235,1.0,0.182,0.004
26/07/2023,06:55:23,0.240,1.0,0.186,0.004
26/07/2023,06:56:21,0.244,1.0,0.19,0.004
26/07/2023,06:57:22,0.248,1.0,0.194,0.004
26/07/2023,06:58:23,0.253,1.0,0.199,0.005
26/07/2023,06:59:22,0.258,1.0,0.203,0.004
26/07/2023,07:00:22,0.262,1.0,0.207,0.004
26/07/2023,07:01:22,0.267,1.0,0.212,0.005
26/07/2023,07:02:23,0.271,1.0,0.216,0.004
26/07/2023,07:03:22,0.276,1.0,0.221,0.005
26/07/2023,07:04:23,0.277,1.0,0.225,0.004
26/07/2023,07:05:22,0.271,1.0,0.23,0.005
26/07/2023,07:06:23,0.273,1.0,0.234,0.004
26/07/2023,07:07:23,0.277,1.0,0.239,0.005
26/07/2023,07:08:22,0.295,1.0,0.244,0.005
26/07/2023,07:09:22,0.301,1.0,0.249,0.005
26/07/2023,07:10:23,0.308,1.0,0.254,0.005
26/07/2023,07:11:22,0.314,1.0,0.259,0.005
26/07/2023,07:12:22,0.321,1.0,0.264,0.005
26/07/2023,07:13:22,0.327,1.0,0.27,0.006
26/07/2023,07:14:22,0.334,1.0,0.275,0.005
26/07/2023,07:15:23,0.340,1.0,0.281,0.006
26/07/2023,07:16:23,0.346,1.0,0.286,0.005
26/07/2023,07:17:23,0.353,1.0,0.292,0.006
26/07/2023,07:18:22,0.359,1.0,0.298,0.006
26/07/2023,07:19:23,0.366,1.0,0.304,0.006
26/07/2023,07:20:23,0.372,1.0,0.31,0.006
26/07/2023,07:21:22,0.377,1.0,0.317,0.007
26/07/2023,07:22:22,0.367,1.0,0.323,0.006
26/07/2023,07:23:22,0.369,1.0,0.329,0.006
26/07/2023,07:24:22,0.353,1.0,0.335,0.006
26/07/2023,07:25:23,0.344,1.0,0.341,0.006
26/07/2023,07:26:22,0.352,1.0,0.347,0.006
26/07/2023,07:27:23,0.391,1.0,0.353,0.006
26/07/2023,07:28:22,0.388,1.0,0.359,0.006
26/07/2023,07:29:23,0.374,1.0,0.366,0.007
26/07/2023,07:30:22,0.363,1.0,0.372,0.006
26/07/2023,07:31:22,0.388,1.0,0.378,0.006
26/07/2023,07:32:22,0.416,1.0,0.385,0.007
26/07/2023,07:33:22,0.439,1.0,0.392,0.007
26/07/2023,07:34:22,0.446,1.0,0.399,0.007
26/07/2023,07:35:22,0.459,1.0,0.407,0.008
26/07/2023,07:36:23,0.466,1.0,0.415,0.008
26/07/2023,07:37:22,0.475,1.0,0.422,0.007
26/07/2023,07:38:22,0.481,1.0,0.43,0.008
26/07/2023,07:39:23,0.490,1.0,0.438,0.008
26/07/2023,07:40:23,0.497,1.0,0.447,0.009
26/07/2023,07:41:22,0.502,1.0,0.455,0.008
26/07/2023,07:42:23,0.493,1.0,0.463,0.008
26/07/2023,07:43:22,0.451,1.0,0.471,0.008
26/07/2023,07:44:23,0.492,1.0,0.479,0.008
26/07/2023,07:45:22,0.500,1.0,0.487,0.008
26/07/2023,07:46:23,0.528,1.0,0.496,0.009
26/07/2023,07:47:22,0.538,1.0,0.505,0.009
26/07/2023,07:48:23,0.547,1.0,0.514,0.009
26/07/2023,07:49:22,0.553,1.0,0.523,0.009
26/07/2023,07:50:23,0.560,1.0,0.532,0.009
26/07/2023,07:51:22,0.560,1.0,0.542,0.01
26/07/2023,07:52:22,0.571,1.0,0.551,0.009
26/07/2023,07:53:22,0.579,1.0,0.561,0.01
26/07/2023,07:54:22,0.587,1.0,0.57,0.009
26/07/2023,07:55:23,0.593,1.0,0.58,0.01
26/07/2023,07:56:23,0.599,1.0,0.59,0.01
26/07/2023,07:57:22,0.605,1.0,0.6,0.01
26/07/2023,07:58:23,0.609,1.0,0.61,0.01
26/07/2023,07:59:22,0.590,1.0,0.62,0.01
26/07/2023,08:00:23,0.598,1.0,0.63,0.01
26/07/2023,08:01:22,0.628,1.0,0.641,0.011
26/07/2023,08:02:23,0.626,1.0,0.651,0.01
26/07/2023,08:03:23,0.632,1.0,0.662,0.011
26/07/2023,08:04:22,0.646,1.0,0.672,0.01
26/07/2023,08:05:23,0.654,2.0,0.683,0.011
26/07/2023,08:06:23,0.659,2.0,0.694,0.011
26/07/2023,08:07:22,0.664,2.0,0.705,0.011
26/07/2023,08:08:23,0.654,2.0,0.716,0.011
26/07/2023,08:09:23,0.621,1.0,0.727,0.011
26/07/2023,08:10:23,0.665,2.0,0.738,0.011
26/07/2023,08:11:22,0.690,2.0,0.749,0.011
26/07/2023,08:12:23,0.702,2.0,0.761,0.012
26/07/2023,08:13:22,0.709,2.0,0.772,0.011
26/07/2023,08:14:22,0.708,2.0,0.784,0.012
26/07/2023,08:15:23,0.700,2.0,0.796,0.012
26/07/2023,08:16:23,0.713,2.0,0.808,0.012
26/07/2023,08:17:23,0.735,2.0,0.82,0.012
26/07/2023,08:18:23,0.735,2.0,0.832,0.012
26/07/2023,08:19:22,0.741,2.0,0.844,0.012
26/07/2023,08:20:23,0.751,2.0,0.857,0.013
26/07/2023,08:21:22,0.776,2.0,0.869,0.012
26/07/2023,08:22:22,0.786,2.0,0.882,0.013
26/07/2023,08:23:23,0.770,2.0,0.895,0.013
26/07/2023,08:24:22,0.735,2.0,0.908,0.013
26/07/2023,08:25:22,0.771,2.0,0.921,0.013
26/07/2023,08:26:23,0.784,2.0,0.933,0.012
26/07/2023,08:27:22,0.793,2.0,0.947,0.014
26/07/2023,08:28:22,0.801,2.0,0.96,0.013
26/07/2023,08:29:23,0.812,2.0,0.973,0.013
26/07/2023,08:30:23,0.834,2.0,0.987,0.014
26/07/2023,08:31:23,0.853,2.0,1.001,0.014
26/07/2023,08:32:23,0.870,2.0,1.015,0.014
26/07/2023,08:33:23,0.839,2.0,1.03,0.015
26/07/2023,08:34:22,0.784,2.0,1.043,0.013
26/07/2023,08:35:23,0.895,2.0,1.058,0.015
26/07/2023,08:36:22,0.833,2.0,1.072,0.014
26/07/2023,08:37:22,0.924,2.0,1.087,0.015
26/07/2023,08:38:23,0.934,2.0,1.103,0.016
26/07/2023,08:39:22,0.849,2.0,1.117,0.014
26/07/2023,08:40:23,0.837,2.0,1.131,0.014
26/07/2023,08:41:22,0.849,2.0,1.146,0.015
26/07/2023,08:42:23,0.803,2.0,1.16,0.014
26/07/2023,08:43:23,0.864,2.0,1.174,0.014
26/07/2023,08:44:22,0.872,2.0,1.188,0.014
26/07/2023,08:45:23,0.861,2.0,1.203,0.015
26/07/2023,08:46:23,0.910,2.0,1.217,0.014
26/07/2023,08:47:22,0.962,2.0,1.233,0.016
26/07/2023,08:48:23,0.925,2.0,1.248,0.015
26/07/2023,08:49:22,0.938,2.0,1.264,0.016
26/07/2023,08:50:23,0.930,2.0,1.279,0.015
26/07/2023,08:51:23,0.928,2.0,1.295,0.016
26/07/2023,08:52:22,0.910,2.0,1.31,0.015
26/07/2023,08:53:23,0.959,2.0,1.326,0.016
26/07/2023,08:54:22,0.963,2.0,1.342,0.016
26/07/2023,08:55:22,0.942,2.0,1.358,0.016
26/07/2023,08:56:25,0.953,2.0,1.374,0.016
26/07/2023,08:57:22,0.948,2.0,1.389,0.015
26/07/2023,08:58:23,0.953,2.0,1.405,0.016
26/07/2023,08:59:23,0.988,2.0,1.421,0.016
26/07/2023,09:00:23,1.015,2.0,1.438,0.017
26/07/2023,09:01:22,1.064,2.0,1.455,0.017
26/07/2023,09:02:23,1.084,2.0,1.473,0.018
26/07/2023,09:03:23,1.093,3.0,1.492,0.019
26/07/2023,09:04:22,1.108,3.0,1.51,0.018
26/07/2023,09:05:22,1.132,3.0,1.529,0.019
26/07/2023,09:06:23,1.169,3.0,1.548,0.019
26/07/2023,09:07:23,1.186,3.0,1.567,0.019
26/07/2023,09:08:23,1.212,3.0,1.587,0.02
26/07/2023,09:09:22,1.250,3.0,1.608,0.021
26/07/2023,09:10:23,1.213,3.0,1.629,0.021
26/07/2023,09:11:23,1.210,3.0,1.649,0.02
26/07/2023,09:12:23,1.246,3.0,1.669,0.02
26/07/2023,09:13:22,1.264,3.0,1.69,0.021
26/07/2023,09:14:22,1.239,3.0,1.711,0.021
26/07/2023,09:15:23,1.255,3.0,1.732,0.021
26/07/2023,09:16:22,1.235,3.0,1.752,0.02
26/07/2023,09:17:23,1.244,3.0,1.774,0.022
26/07/2023,09:18:22,1.196,3.0,1.793,0.019
26/07/2023,09:19:22,1.170,3.0,1.813,0.02
26/07/2023,09:20:23,1.155,3.0,1.832,0.019
26/07/2023,09:21:22,1.173,3.0,1.851,0.019
26/07/2023,09:22:22,1.158,3.0,1.871,0.02
26/07/2023,09:23:27,1.101,3.0,1.891,0.02
26/07/2023,09:24:23,1.130,3.0,1.909,0.018
26/07/2023,09:25:23,1.185,3.0,1.928,0.019
26/07/2023,09:26:23,1.114,3.0,1.948,0.02
26/07/2023,09:27:23,1.140,3.0,1.966,0.018
26/07/2023,09:28:22,1.070,2.0,1.984,0.018
26/07/2023,09:29:23,1.068,2.0,2.002,0.018
26/07/2023,09:30:23,0.993,2.0,2.02,0.018
26/07/2023,09:31:23,0.973,2.0,2.036,0.016
26/07/2023,09:32:23,1.033,2.0,2.052,0.016
26/07/2023,09:33:22,1.102,3.0,2.07,0.018
26/07/2023,09:34:23,1.132,3.0,2.089,0.019
26/07/2023,09:35:23,1.141,3.0,2.108,0.019
26/07/2023,09:36:22,1.190,3.0,2.127,0.019
26/07/2023,09:37:23,1.184,3.0,2.147,0.02
26/07/2023,09:38:23,1.180,3.0,2.167,0.02
26/07/2023,09:39:22,1.132,3.0,2.186,0.019
26/07/2023,09:40:22,1.019,2.0,2.204,0.018
26/07/2023,09:41:23,1.062,2.0,2.221,0.017
26/07/2023,09:42:23,0.998,2.0,2.238,0.017
26/07/2023,09:43:22,0.998,2.0,2.254,0.016
26/07/2023,09:44:23,0.989,2.0,2.271,0.017
26/07/2023,09:45:23,0.973,2.0,2.287,0.016
26/07/2023,09:46:23,0.933,2.0,2.303,0.016
26/07/2023,09:47:23,0.916,2.0,2.319,0.016
26/07/2023,09:48:23,0.916,2.0,2.334,0.015
26/07/2023,09:49:22,0.931,2.0,2.349,0.015
26/07/2023,09:50:23,1.046,2.0,2.365,0.016
26/07/2023,09:51:23,1.020,2.0,2.382,0.017
26/07/2023,09:52:23,1.163,3.0,2.401,0.019
26/07/2023,09:53:22,1.296,3.0,2.423,0.022
26/07/2023,09:54:23,1.292,3.0,2.445,0.022
26/07/2023,09:55:23,1.518,3.0,2.467,0.022
26/07/2023,09:56:23,1.526,4.0,2.493,0.026
26/07/2023,09:57:23,1.670,4.0,2.521,0.028